#�ϑ�����,���ϕ���,���ϕ���,�ő啗��,�ő啗����������,�ő�u�ԕ���,�ő�u�ԕ�����������
#(�N����),(m/s)   ,(16����),(m/s)   ,(16����)        ,(m/s)       ,(16����)            
2015/4/7 0:01,1,14,1.1,14,1.1,6
2015/4/7 0:02,0.9,13,1,14,0.8,7
2015/4/7 0:03,0.7,12,0.9,14,0.5,6
2015/4/7 0:04,0.6,11,0.7,14,1.1,12
2015/4/7 0:05,0.5,10,0.6,14,1.5,11
2015/4/7 0:06,0.6,10,0.6,15,2,12
2015/4/7 0:07,0.8,10,0.8,15,3,11
2015/4/7 0:08,1,10,1,14,3,11
2015/4/7 0:09,1.2,10,1.2,14,3,11
2015/4/7 0:10,1.4,10,1.4,10,2.7,12
2015/4/7 0:11,1.5,11,1.5,11,2.5,12
2015/4/7 0:12,1.6,11,1.6,11,1.9,12
2015/4/7 0:13,1.8,11,1.8,11,2.5,10
2015/4/7 0:14,1.9,11,1.9,11,3,11
2015/4/7 0:15,2,11,2,11,3.5,9
2015/4/7 0:16,2.1,11,2.1,11,3,9
2015/4/7 0:17,2,11,2.1,11,2.1,11
2015/4/7 0:18,1.9,11,2,11,2.1,11
2015/4/7 0:19,1.8,11,1.9,11,2.5,9
2015/4/7 0:20,1.8,11,1.8,11,2.4,9
2015/4/7 0:21,1.7,10,1.8,11,3.2,9
2015/4/7 0:22,1.7,10,1.7,11,2.5,9
2015/4/7 0:23,1.6,10,1.7,11,2.6,9
2015/4/7 0:24,1.4,10,1.6,11,2.2,10
2015/4/7 0:25,1.4,10,1.4,11,4.2,9
2015/4/7 0:26,1.5,10,1.5,11,4.4,9
2015/4/7 0:27,1.5,10,1.5,11,3.5,8
2015/4/7 0:28,1.6,9,1.6,11,3.1,10
2015/4/7 0:29,1.6,9,1.6,11,3.8,10
2015/4/7 0:30,1.5,9,1.6,11,3.3,10
2015/4/7 0:31,1.6,9,1.6,10,4.2,10
2015/4/7 0:32,1.7,10,1.7,10,3.6,11
2015/4/7 0:33,1.7,10,1.7,10,1.5,5
2015/4/7 0:34,1.8,9,1.8,9,3.6,4
2015/4/7 0:35,1.7,9,1.8,9,2.2,8
2015/4/7 0:36,1.5,9,1.6,9,2.4,5
2015/4/7 0:37,1.5,9,1.5,9,1.4,11
2015/4/7 0:38,1.3,8,1.5,9,1.4,8
2015/4/7 0:39,1.2,9,1.3,9,1.3,12
2015/4/7 0:40,1.2,9,1.2,9,2.2,13
2015/4/7 0:41,1.2,11,1.2,9,2.9,12
2015/4/7 0:42,1.2,11,1.2,9,2.9,13
2015/4/7 0:43,1.3,12,1.3,9,2.4,13
2015/4/7 0:44,1.2,12,1.3,9,1.9,14
2015/4/7 0:45,1.2,13,1.3,9,1.5,13
2015/4/7 0:46,1.1,13,1.2,9,0.4,14
2015/4/7 0:47,1.2,13,1.2,8,2.7,6
2015/4/7 0:48,1.3,13,1.3,8,2.5,6
2015/4/7 0:49,1.3,12,1.3,11,1.1,4
2015/4/7 0:50,1.4,13,1.4,12,6,16
2015/4/7 0:51,1.4,15,1.4,12,3.7,16
2015/4/7 0:52,1.4,2,1.4,12,3.2,4
2015/4/7 0:53,1.6,3,1.6,3,5.8,3
2015/4/7 0:54,1.7,3,1.7,3,4.5,3
2015/4/7 0:55,1.7,4,1.7,3,1.8,16
2015/4/7 0:56,1.9,3,1.9,3,3.9,16
2015/4/7 0:57,2.1,3,2.1,3,9.7,3
2015/4/7 0:58,2.5,3,2.5,3,10.3,4
2015/4/7 0:59,2.7,2,2.7,2,5.5,16
2015/4/7 1:00,2.7,2,2.7,2,3,16
2015/4/7 1:01,2.6,2,2.7,2,2.6,16
2015/4/7 1:02,2.5,2,2.6,2,2,14
2015/4/7 1:03,2.2,2,2.5,2,2.6,1
2015/4/7 1:04,2.2,1,2.2,2,3.8,3
2015/4/7 1:05,2.5,2,2.5,2,5,3
2015/4/7 1:06,2.5,2,2.6,2,5.1,4
2015/4/7 1:07,2.1,2,2.5,2,1,6
2015/4/7 1:08,1.8,2,2.1,2,2.9,2
2015/4/7 1:09,1.8,2,1.8,2,5.6,3
2015/4/7 1:10,1.8,2,1.9,2,4.9,3
2015/4/7 1:11,2.1,3,2.1,2,7.1,3
2015/4/7 1:12,2.4,3,2.4,2,6.2,4
2015/4/7 1:13,2.6,3,2.6,2,5,3
2015/4/7 1:14,2.7,3,2.7,3,7,3
2015/4/7 1:15,2.8,3,2.8,3,7,4
2015/4/7 1:16,2.9,4,2.9,3,6,3
2015/4/7 1:17,3,3,3,3,3.5,1
2015/4/7 1:18,3.1,3,3.1,3,5.6,3
2015/4/7 1:19,3.4,3,3.4,3,7.5,4
2015/4/7 1:20,3.4,3,3.4,3,4.4,3
2015/4/7 1:21,3.2,3,3.4,3,2.9,3
2015/4/7 1:22,3,3,3.1,3,6.7,3
2015/4/7 1:23,3.1,3,3.1,3,6,3
2015/4/7 1:24,2.9,3,3.1,3,2.6,16
2015/4/7 1:25,2.7,3,2.8,3,4.1,3
2015/4/7 1:26,2.6,3,2.7,3,2.9,5
2015/4/7 1:27,2.6,3,2.7,3,2.4,3
2015/4/7 1:28,2.6,3,2.6,3,3.9,6
2015/4/7 1:29,2.4,3,2.6,3,4.9,4
2015/4/7 1:30,2.5,4,2.5,3,4.2,3
2015/4/7 1:31,2.7,3,2.7,3,7.2,1
2015/4/7 1:32,2.9,3,3,3,7.6,2
2015/4/7 1:33,2.6,4,2.8,3,2,7
2015/4/7 1:34,2.7,4,2.7,3,2.7,4
2015/4/7 1:35,2.6,4,2.7,3,5.7,3
2015/4/7 1:36,2.9,4,2.9,3,6.9,2
2015/4/7 1:37,3,3,3,3,4.9,2
2015/4/7 1:38,3.1,3,3.1,3,6.2,3
2015/4/7 1:39,3.2,3,3.2,3,6,3
2015/4/7 1:40,3.3,3,3.3,3,4.4,3
2015/4/7 1:41,3,3,3.2,3,3.5,4
2015/4/7 1:42,2.8,4,3,3,4.7,4
2015/4/7 1:43,2.9,4,2.9,3,5.1,1
2015/4/7 1:44,3,3,3,3,3.5,1
2015/4/7 1:45,2.8,3,3,3,1.1,6
2015/4/7 1:46,2.5,3,2.8,3,1.9,13
2015/4/7 1:47,2.4,2,2.4,3,3.2,15
2015/4/7 1:48,2.3,2,2.4,3,4.5,14
2015/4/7 1:49,2.1,1,2.3,3,4.3,15
2015/4/7 1:50,1.8,15,2.1,3,2.1,14
2015/4/7 1:51,1.7,15,1.8,3,1.9,8
2015/4/7 1:52,1.5,14,1.7,3,1.4,14
2015/4/7 1:53,1.4,13,1.5,3,2.5,9
2015/4/7 1:54,1.3,13,1.4,3,1.6,9
2015/4/7 1:55,1.3,12,1.3,3,1.4,9
2015/4/7 1:56,1.3,11,1.3,3,2.5,3
2015/4/7 1:57,1.2,10,1.3,2,2.5,3
2015/4/7 1:58,1.1,9,1.2,2,3.2,4
2015/4/7 1:59,1.2,7,1.2,16,4.7,3
2015/4/7 2:00,1.5,6,1.5,15,5.7,5
2015/4/7 2:01,1.8,6,1.8,6,7,3
2015/4/7 2:02,1.9,5,1.9,6,3,4
2015/4/7 2:03,2.1,5,2.1,5,4.7,2
2015/4/7 2:04,2.3,4,2.3,4,5.1,2
2015/4/7 2:05,2.5,4,2.5,4,4.7,1
2015/4/7 2:06,2.6,3,2.6,4,5.1,16
2015/4/7 2:07,2.8,3,2.8,3,5.1,16
2015/4/7 2:08,3,2,3,2,8.4,1
2015/4/7 2:09,3.2,2,3.2,2,9.2,16
2015/4/7 2:10,3.5,2,3.5,2,9.1,3
2015/4/7 2:11,3.7,2,3.7,2,9.2,3
2015/4/7 2:12,3.9,2,3.9,2,7,4
2015/4/7 2:13,3.9,2,3.9,2,3.9,4
2015/4/7 2:14,4,2,4,2,6.3,3
2015/4/7 2:15,4.2,2,4.2,2,6.7,3
2015/4/7 2:16,4.3,3,4.3,2,4.1,3
2015/4/7 2:17,4.2,3,4.3,2,3,5
2015/4/7 2:18,4,3,4.1,2,5.4,2
2015/4/7 2:19,4,3,4,2,9.2,16
2015/4/7 2:20,3.8,3,3.9,2,8.5,1
2015/4/7 2:21,3.7,3,3.8,2,9,2
2015/4/7 2:22,4,3,4,2,10.5,2
2015/4/7 2:23,4,2,4,2,5.6,3
2015/4/7 2:24,3.9,2,4,2,7.2,2
2015/4/7 2:25,3.9,2,3.9,2,6.3,3
2015/4/7 2:26,3.8,2,3.9,3,4.2,3
2015/4/7 2:27,4.1,2,4.1,3,6.5,16
2015/4/7 2:28,4.2,2,4.2,2,6.1,2
2015/4/7 2:29,3.9,2,4.2,2,3.8,2
2015/4/7 2:30,3.6,2,3.9,2,3.2,2
2015/4/7 2:31,3.5,2,3.6,2,7,3
2015/4/7 2:32,3.3,2,3.5,2,6.9,3
2015/4/7 2:33,3.4,2,3.4,2,7.4,3
2015/4/7 2:34,3.7,2,3.7,2,8.3,2
2015/4/7 2:35,3.5,2,3.7,2,8.6,2
2015/4/7 2:36,3.5,2,3.5,2,6,2
2015/4/7 2:37,3.7,2,3.7,2,10.6,3
2015/4/7 2:38,3.6,2,3.7,2,8.9,4
2015/4/7 2:39,3.9,2,3.9,2,7.8,2
2015/4/7 2:40,4.2,2,4.2,2,8.5,3
2015/4/7 2:41,4.2,2,4.3,2,7.6,14
2015/4/7 2:42,4.3,2,4.3,2,7.8,2
2015/4/7 2:43,4.2,2,4.3,2,7.6,2
2015/4/7 2:44,4,2,4.2,2,5.2,16
2015/4/7 2:45,4,2,4,2,5.6,1
2015/4/7 2:46,4.1,2,4.1,2,11.3,2
2015/4/7 2:47,4,2,4.2,2,9.5,1
2015/4/7 2:48,4.2,2,4.2,2,9.4,2
2015/4/7 2:49,4.1,2,4.2,2,4.3,2
2015/4/7 2:50,3.8,2,4.1,2,5.6,15
2015/4/7 2:51,3.9,2,3.9,2,7.8,2
2015/4/7 2:52,3.8,1,3.9,2,5.8,1
2015/4/7 2:53,3.7,1,3.8,2,5.4,16
2015/4/7 2:54,3.6,1,3.7,2,4.8,2
2015/4/7 2:55,3.5,1,3.6,2,3.3,5
2015/4/7 2:56,3.3,2,3.6,2,3.8,6
2015/4/7 2:57,3,2,3.3,2,4.3,4
2015/4/7 2:58,2.9,2,3,2,7.8,3
2015/4/7 2:59,3.2,2,3.2,2,9,3
2015/4/7 3:00,3.5,2,3.6,2,10.3,1
2015/4/7 3:01,3.5,2,3.5,2,6.3,16
2015/4/7 3:02,3.4,2,3.4,1,8.6,16
2015/4/7 3:03,3.9,2,3.9,2,16.9,16
2015/4/7 3:04,4.4,2,4.4,2,13.4,16
2015/4/7 3:05,4.6,2,4.6,2,6.2,3
2015/4/7 3:06,4.9,2,4.9,2,8.1,2
2015/4/7 3:07,5.1,2,5.1,2,8.4,3
2015/4/7 3:08,5.1,1,5.2,1,9.8,2
2015/4/7 3:09,5.2,1,5.2,1,11.3,2
2015/4/7 3:10,5,1,5.2,1,9.3,4
2015/4/7 3:11,5,2,5,1,7.6,2
2015/4/7 3:12,4.9,2,5,1,6.8,2
2015/4/7 3:13,4.6,2,4.9,1,7.8,16
2015/4/7 3:14,4.4,2,4.5,1,10,16
2015/4/7 3:15,4.3,2,4.4,1,4.7,4
2015/4/7 3:16,4.5,2,4.5,1,8.9,15
2015/4/7 3:17,4.5,2,4.6,1,9.5,15
2015/4/7 3:18,4.4,2,4.5,1,7,1
2015/4/7 3:19,4,1,4.4,1,3.7,15
2015/4/7 3:20,3.8,1,4,1,4.4,14
2015/4/7 3:21,3.9,1,3.9,2,7,2
2015/4/7 3:22,4.2,1,4.2,2,11.9,14
2015/4/7 3:23,4.1,1,4.2,2,8.1,16
2015/4/7 3:24,4,1,4.2,2,9.7,3
2015/4/7 3:25,4.3,1,4.3,2,10.6,1
2015/4/7 3:26,4.2,1,4.3,2,7.5,16
2015/4/7 3:27,4.3,1,4.3,2,8.2,4
2015/4/7 3:28,4.2,1,4.3,2,5.5,1
2015/4/7 3:29,4.3,1,4.3,1,6.4,1
2015/4/7 3:30,4.3,2,4.4,2,3.9,15
2015/4/7 3:31,4.1,2,4.3,2,3,2
2015/4/7 3:32,3.6,2,4,2,2.5,4
2015/4/7 3:33,3.5,2,3.6,2,6,2
2015/4/7 3:34,3.6,2,3.6,2,13.1,16
2015/4/7 3:35,3.5,2,3.7,2,12.4,16
2015/4/7 3:36,3.5,1,3.6,2,9.8,1
2015/4/7 3:37,3.1,1,3.5,2,3.8,16
2015/4/7 3:38,3.1,1,3.1,2,3.3,16
2015/4/7 3:39,3.1,1,3.1,2,6.5,2
2015/4/7 3:40,3.3,1,3.3,1,8.9,1
2015/4/7 3:41,3.5,1,3.5,2,8.9,3
2015/4/7 3:42,3.7,1,3.7,2,6.7,3
2015/4/7 3:43,3.7,1,3.7,2,6.5,4
2015/4/7 3:44,3.4,2,3.7,2,4.7,2
2015/4/7 3:45,3.2,1,3.4,1,4.7,16
2015/4/7 3:46,2.9,1,3.1,1,4.8,2
2015/4/7 3:47,3,1,3.1,1,5.8,2
2015/4/7 3:48,3.1,1,3.1,1,4.8,1
2015/4/7 3:49,3.3,1,3.4,1,9.5,1
2015/4/7 3:50,3.1,1,3.3,1,6.8,2
2015/4/7 3:51,3.2,1,3.2,1,8.9,3
2015/4/7 3:52,3.4,1,3.4,1,8.2,3
2015/4/7 3:53,3.5,1,3.5,1,6.9,3
2015/4/7 3:54,3.7,1,3.7,1,9.1,3
2015/4/7 3:55,3.9,2,3.9,2,9.1,16
2015/4/7 3:56,4.2,2,4.2,2,9.3,2
2015/4/7 3:57,4.2,2,4.2,2,7.9,2
2015/4/7 3:58,4.2,2,4.2,2,6.5,15
2015/4/7 3:59,4,2,4.1,2,7.8,1
2015/4/7 4:00,3.9,2,4,2,5.6,3
2015/4/7 4:01,3.9,2,4,2,9,16
2015/4/7 4:02,4.1,2,4.1,2,10.8,1
2015/4/7 4:03,4.1,2,4.1,2,8.2,2
2015/4/7 4:04,3.9,2,4.1,2,5.5,1
2015/4/7 4:05,3.9,2,4,2,7.1,1
2015/4/7 4:06,3.7,2,3.9,2,4.8,1
2015/4/7 4:07,3.6,2,3.7,2,7.1,3
2015/4/7 4:08,3.8,2,3.8,2,8.7,4
2015/4/7 4:09,4.1,2,4.1,2,11.1,16
2015/4/7 4:10,4.2,1,4.2,2,7.1,15
2015/4/7 4:11,4,1,4.2,2,5.6,16
2015/4/7 4:12,3.7,1,3.9,2,8.1,15
2015/4/7 4:13,3.9,1,3.9,2,10.8,16
2015/4/7 4:14,4.2,1,4.2,2,13.3,16
2015/4/7 4:15,4.1,1,4.2,2,8.3,1
2015/4/7 4:16,4.2,1,4.2,2,7.9,2
2015/4/7 4:17,4.4,1,4.4,1,8.4,15
2015/4/7 4:18,4.5,16,4.5,1,8.4,15
2015/4/7 4:19,4.3,16,4.5,1,8.1,1
2015/4/7 4:20,4.5,1,4.5,1,9,1
2015/4/7 4:21,4.9,1,4.9,1,14.3,1
2015/4/7 4:22,4.9,1,4.9,1,8.1,2
2015/4/7 4:23,4.9,1,4.9,1,10.3,1
2015/4/7 4:24,4.9,1,5,1,12.5,1
2015/4/7 4:25,5,16,5,1,10.5,16
2015/4/7 4:26,5.2,16,5.3,1,10.8,15
2015/4/7 4:27,5.4,16,5.4,16,11.9,15
2015/4/7 4:28,5.5,1,5.5,16,11.6,16
2015/4/7 4:29,5.7,1,5.7,16,12.7,1
2015/4/7 4:30,5.8,1,5.8,1,12.6,1
2015/4/7 4:31,5.6,1,5.8,1,11,2
2015/4/7 4:32,6.1,1,6.1,1,15.6,16
2015/4/7 4:33,6,1,6.1,1,12.2,1
2015/4/7 4:34,6.1,1,6.1,1,11.1,2
2015/4/7 4:35,6.1,1,6.1,1,12.6,16
2015/4/7 4:36,6.3,1,6.4,1,13.2,1
2015/4/7 4:37,6.2,1,6.3,1,11.3,1
2015/4/7 4:38,6.1,1,6.2,1,13.3,16
2015/4/7 4:39,6.2,1,6.2,1,13.2,16
2015/4/7 4:40,6.1,1,6.2,1,12.6,2
2015/4/7 4:41,6.2,1,6.3,1,12.6,16
2015/4/7 4:42,6,1,6.2,1,11.9,2
2015/4/7 4:43,6.3,1,6.3,1,14.4,1
2015/4/7 4:44,6,1,6.2,1,10.9,16
2015/4/7 4:45,6,1,6.1,1,9.2,16
2015/4/7 4:46,6,1,6.2,1,13.2,16
2015/4/7 4:47,6.1,1,6.1,1,13.4,2
2015/4/7 4:48,5.9,1,6.1,1,10.3,1
2015/4/7 4:49,5.7,1,5.8,1,11.1,1
2015/4/7 4:50,5.7,1,5.8,1,10,2
2015/4/7 4:51,5.5,1,5.6,1,11.5,4
2015/4/7 4:52,5.7,1,5.7,1,16.2,16
2015/4/7 4:53,5.4,1,5.7,1,12.6,15
2015/4/7 4:54,5.4,1,5.4,1,10,1
2015/4/7 4:55,5.3,1,5.4,1,9.8,2
2015/4/7 4:56,5.2,1,5.2,1,11,1
2015/4/7 4:57,4.8,1,5.2,1,5.7,1
2015/4/7 4:58,4.7,1,4.8,1,7.2,15
2015/4/7 4:59,4.8,1,4.8,1,11.8,3
2015/4/7 5:00,5.1,1,5.1,1,13.2,2
2015/4/7 5:01,5,1,5.1,1,9.9,3
2015/4/7 5:02,5,1,5,1,14.2,2
2015/4/7 5:03,4.8,1,5,1,11.9,16
2015/4/7 5:04,4.7,1,4.8,1,8.2,16
2015/4/7 5:05,4.7,1,4.8,1,7.2,2
2015/4/7 5:06,4.5,1,4.7,1,5.6,3
2015/4/7 5:07,4.7,1,4.7,1,11.7,16
2015/4/7 5:08,5,1,5,1,13.1,1
2015/4/7 5:09,4.7,1,5,1,6.4,2
2015/4/7 5:10,4.4,1,4.8,1,11.4,2
2015/4/7 5:11,4.6,1,4.6,1,9.3,16
2015/4/7 5:12,4,1,4.6,1,5.5,1
2015/4/7 5:13,3.9,2,4,1,7.2,1
2015/4/7 5:14,3.8,2,3.9,1,7.1,1
2015/4/7 5:15,3.7,2,3.8,1,4.3,5
2015/4/7 5:16,3.8,2,3.8,1,4.4,6
2015/4/7 5:17,3.5,3,3.8,1,4.1,5
2015/4/7 5:18,3.1,3,3.4,1,2.7,11
2015/4/7 5:19,2.9,3,3.1,1,4.4,2
2015/4/7 5:20,2.7,3,2.9,1,7,14
2015/4/7 5:21,2.7,3,2.8,1,10,2
2015/4/7 5:22,2.8,3,2.9,1,6,3
2015/4/7 5:23,2.7,3,2.8,2,3.8,2
2015/4/7 5:24,2.6,3,2.7,2,2.7,14
2015/4/7 5:25,2.6,3,2.6,2,4.7,2
2015/4/7 5:26,2.4,2,2.6,2,2.7,1
2015/4/7 5:27,2.5,2,2.5,3,6.9,5
2015/4/7 5:28,2.8,2,2.8,3,9.4,3
2015/4/7 5:29,3,2,3,2,9.5,1
2015/4/7 5:30,3.2,2,3.2,2,10.2,1
2015/4/7 5:31,2.9,2,3.1,2,6.4,1
2015/4/7 5:32,2.9,2,3.1,2,7.8,2
2015/4/7 5:33,3.1,2,3.1,2,7.4,16
2015/4/7 5:34,3.4,2,3.4,2,5.4,3
2015/4/7 5:35,3.3,2,3.4,2,4.5,16
2015/4/7 5:36,3.9,2,3.9,2,10.8,15
2015/4/7 5:37,4.1,1,4.1,1,11.1,1
2015/4/7 5:38,4.5,1,4.5,1,12.7,1
2015/4/7 5:39,4.8,1,4.8,1,11.9,2
2015/4/7 5:40,5,1,5,1,15.1,15
2015/4/7 5:41,5.3,1,5.3,1,11.7,15
2015/4/7 5:42,5.4,1,5.4,1,8.6,1
2015/4/7 5:43,5.2,1,5.4,1,6.7,15
2015/4/7 5:44,5.5,16,5.5,1,12.7,15
2015/4/7 5:45,5.7,16,5.7,16,9,16
2015/4/7 5:46,5.4,1,5.7,16,7.7,2
2015/4/7 5:47,5.2,16,5.3,16,6.4,16
2015/4/7 5:48,5.1,16,5.2,16,11.8,1
2015/4/7 5:49,4.8,1,5,16,10.9,1
2015/4/7 5:50,4.8,1,4.9,16,10.5,16
2015/4/7 5:51,4.5,1,4.7,16,5.5,2
2015/4/7 5:52,4.4,1,4.5,16,9.2,1
2015/4/7 5:53,4.8,1,4.8,16,13,16
2015/4/7 5:54,4.9,1,4.9,16,12.8,2
2015/4/7 5:55,4.9,1,4.9,16,6.2,1
2015/4/7 5:56,5.1,1,5.1,1,9.3,16
2015/4/7 5:57,5.2,2,5.2,1,7.5,3
2015/4/7 5:58,4.8,2,5.2,1,6.1,4
2015/4/7 5:59,4.6,2,4.8,1,6.5,5
2015/4/7 6:00,4.4,2,4.7,1,7.2,15
2015/4/7 6:01,4.4,2,4.4,1,6.4,1
2015/4/7 6:02,4.7,2,4.7,1,11.3,2
2015/4/7 6:03,4.5,2,4.8,1,10.9,2
2015/4/7 6:04,4.5,2,4.5,1,17.1,1
2015/4/7 6:05,4.6,2,4.6,1,10.6,4
2015/4/7 6:06,4.3,2,4.5,1,6,3
2015/4/7 6:07,4.4,2,4.4,2,10.6,3
2015/4/7 6:08,4.6,2,4.6,2,9,1
2015/4/7 6:09,4.5,2,4.7,2,5.5,4
2015/4/7 6:10,4.3,2,4.5,2,3.5,14
2015/4/7 6:11,4.3,2,4.4,2,4.3,3
2015/4/7 6:12,4,2,4.2,2,6,3
2015/4/7 6:13,3.8,3,3.9,2,4.8,6
2015/4/7 6:14,3.3,3,3.7,2,4.3,3
2015/4/7 6:15,3.2,4,3.3,2,5.8,5
2015/4/7 6:16,3.3,3,3.3,2,7.5,2
2015/4/7 6:17,3.1,3,3.3,2,6.8,16
2015/4/7 6:18,2.8,4,3,2,4.3,6
2015/4/7 6:19,2.8,4,2.8,2,5.8,3
2015/4/7 6:20,3,4,3,2,4.8,3
2015/4/7 6:21,3.3,4,3.3,2,9.3,4
2015/4/7 6:22,3.2,4,3.3,2,5,3
2015/4/7 6:23,3.3,4,3.3,3,5.1,4
2015/4/7 6:24,3.3,4,3.3,3,3.3,4
2015/4/7 6:25,3.2,4,3.3,4,5,4
2015/4/7 6:26,3.1,4,3.1,3,4.2,3
2015/4/7 6:27,3.1,4,3.1,4,6.1,4
2015/4/7 6:28,3.2,4,3.2,4,5.1,4
2015/4/7 6:29,3,3,3.2,4,2.2,2
2015/4/7 6:30,3,3,3,4,4.4,2
2015/4/7 6:31,2.6,3,3,4,5.2,14
2015/4/7 6:32,2.4,3,2.6,4,3.8,14
2015/4/7 6:33,2.2,3,2.4,4,1.9,3
2015/4/7 6:34,2.2,3,2.2,4,7.9,16
2015/4/7 6:35,2.5,2,2.5,4,10.3,1
2015/4/7 6:36,2.7,1,2.7,4,11.9,16
2015/4/7 6:37,2.6,1,2.7,4,5.7,2
2015/4/7 6:38,2.9,1,2.9,4,8.5,16
2015/4/7 6:39,3.1,1,3.1,1,8.1,2
2015/4/7 6:40,3.3,1,3.3,1,8.4,2
2015/4/7 6:41,3.5,1,3.5,1,8.1,3
2015/4/7 6:42,3.9,1,3.9,1,12.8,15
2015/4/7 6:43,4.4,1,4.4,1,14.4,15
2015/4/7 6:44,4.8,1,4.8,1,12.3,2
2015/4/7 6:45,4.7,1,4.8,1,7.1,15
2015/4/7 6:46,4.8,1,4.8,1,14.2,16
2015/4/7 6:47,4.7,1,4.8,1,8.4,14
2015/4/7 6:48,4.8,1,4.8,1,11,16
2015/4/7 6:49,4.7,1,4.9,1,9.4,1
2015/4/7 6:50,5,1,5,1,15.7,16
2015/4/7 6:51,5.3,1,5.3,1,12.4,1
2015/4/7 6:52,5,1,5.3,1,5.6,15
2015/4/7 6:53,5,1,5.1,1,11.1,1
2015/4/7 6:54,4.8,1,5,1,10.3,16
2015/4/7 6:55,4.9,1,4.9,1,13.5,1
2015/4/7 6:56,5,1,5,1,13.4,2
2015/4/7 6:57,5.4,1,5.4,1,11.8,1
2015/4/7 6:58,5.2,1,5.4,1,9.7,2
2015/4/7 6:59,5.4,1,5.4,1,10.2,15
2015/4/7 7:00,5.2,1,5.5,1,10.2,16
2015/4/7 7:01,5.3,1,5.3,1,12.7,1
2015/4/7 7:02,5.6,1,5.6,1,11,1
2015/4/7 7:03,5.9,1,5.9,1,13.5,1
2015/4/7 7:04,6.1,1,6.2,1,14.5,16
2015/4/7 7:05,6,1,6.1,1,10.7,15
2015/4/7 7:06,5.6,1,6,1,7.1,1
2015/4/7 7:07,5.6,1,5.7,1,12.2,2
2015/4/7 7:08,6,1,6,1,13,2
2015/4/7 7:09,6,1,6,1,8.6,2
2015/4/7 7:10,6.1,1,6.1,1,11.6,16
2015/4/7 7:11,6,1,6.1,1,12.5,16
2015/4/7 7:12,6.1,1,6.1,1,10.5,1
2015/4/7 7:13,5.6,16,6,1,9.5,16
2015/4/7 7:14,5.6,1,5.6,1,12.6,16
2015/4/7 7:15,5.5,1,5.6,1,13.1,15
2015/4/7 7:16,6,1,6,1,14.4,16
2015/4/7 7:17,6.1,1,6.1,1,10.3,1
2015/4/7 7:18,5.8,16,6,1,9.4,15
2015/4/7 7:19,5.8,16,5.9,1,11.6,1
2015/4/7 7:20,5.6,16,5.9,1,10.5,1
2015/4/7 7:21,5.7,1,5.7,1,9.8,1
2015/4/7 7:22,5.7,16,5.8,1,7.5,1
2015/4/7 7:23,6,16,6,1,13.2,1
2015/4/7 7:24,5.9,1,6,1,9.9,16
2015/4/7 7:25,5.9,16,5.9,1,9.9,15
2015/4/7 7:26,5.9,16,6,1,14.5,15
2015/4/7 7:27,5.9,16,5.9,1,11.9,1
2015/4/7 7:28,6,16,6,16,9.8,16
2015/4/7 7:29,6.3,16,6.3,16,13.6,2
2015/4/7 7:30,6.3,16,6.3,16,13.5,1
2015/4/7 7:31,6.4,16,6.4,16,14.4,1
2015/4/7 7:32,6.5,16,6.5,16,12.8,15
2015/4/7 7:33,6.4,16,6.5,16,12.8,1
2015/4/7 7:34,6.4,16,6.5,16,13.8,16
2015/4/7 7:35,6.3,16,6.5,16,13.3,16
2015/4/7 7:36,6.1,16,6.3,16,6.7,1
2015/4/7 7:37,5.9,1,6.2,16,10.3,1
2015/4/7 7:38,5.9,1,5.9,16,14.3,2
2015/4/7 7:39,5.7,1,5.9,16,10.6,16
2015/4/7 7:40,5.9,1,6,16,11.6,15
2015/4/7 7:41,5.9,16,6,16,11.4,16
2015/4/7 7:42,5.9,1,6,16,10.5,1
2015/4/7 7:43,6,16,6.1,16,10.1,15
2015/4/7 7:44,6,16,6,16,13.6,15
2015/4/7 7:45,6.5,16,6.5,16,16,16
2015/4/7 7:46,6.9,16,6.9,16,13,1
2015/4/7 7:47,7.1,16,7.1,16,11.7,1
2015/4/7 7:48,6.9,16,7.2,16,8.1,16
2015/4/7 7:49,6.9,16,7,16,12.1,1
2015/4/7 7:50,6.6,16,6.9,16,7.9,16
2015/4/7 7:51,6.4,16,6.6,16,11.3,16
2015/4/7 7:52,6.4,16,6.4,16,16,15
2015/4/7 7:53,6.3,16,6.4,16,10.7,2
2015/4/7 7:54,6.2,16,6.4,16,14.5,16
2015/4/7 7:55,6.2,16,6.3,16,15.4,16
2015/4/7 7:56,6.2,16,6.2,16,12.7,16
2015/4/7 7:57,6.1,16,6.3,16,13.8,16
2015/4/7 7:58,6.1,16,6.1,16,9,15
2015/4/7 7:59,6,16,6.2,16,8.2,1
2015/4/7 8:00,6.3,16,6.3,16,11.7,16
2015/4/7 8:01,6.1,16,6.2,16,7.8,1
2015/4/7 8:02,6,16,6.3,16,9,1
2015/4/7 8:03,6,16,6,16,11.8,16
2015/4/7 8:04,6,16,6,16,13.4,16
2015/4/7 8:05,5.9,16,6.1,16,13.6,2
2015/4/7 8:06,5.7,16,6,16,12.3,15
2015/4/7 8:07,5.7,16,5.7,16,14.1,15
2015/4/7 8:08,5.8,16,5.8,16,11.3,15
2015/4/7 8:09,6,16,6,16,13.1,16
2015/4/7 8:10,5.9,16,6,16,12.8,15
2015/4/7 8:11,6,16,6,16,11.5,2
2015/4/7 8:12,6,1,6,16,9.1,2
2015/4/7 8:13,5.9,1,6,16,9.4,2
2015/4/7 8:14,5.8,1,5.9,16,7.1,2
2015/4/7 8:15,5.3,1,5.7,16,8.6,16
2015/4/7 8:16,4.9,1,5.3,16,4.7,16
2015/4/7 8:17,4.7,1,4.9,16,7,16
2015/4/7 8:18,4.6,1,4.7,16,14.1,2
2015/4/7 8:19,4.4,1,4.6,16,8.4,16
2015/4/7 8:20,4.2,1,4.4,16,10,2
2015/4/7 8:21,4.1,1,4.2,16,9.3,1
2015/4/7 8:22,4.1,1,4.1,1,8.9,16
2015/4/7 8:23,4,1,4.2,1,10,15
2015/4/7 8:24,4.2,1,4.2,1,12.4,16
2015/4/7 8:25,4.2,16,4.3,1,6.8,16
2015/4/7 8:26,4.6,16,4.6,1,10.2,16
2015/4/7 8:27,5.1,16,5.1,16,11.9,1
2015/4/7 8:28,5.2,16,5.2,16,16.5,16
2015/4/7 8:29,5.2,16,5.2,16,9.9,15
2015/4/7 8:30,5.4,16,5.4,16,12.7,1
2015/4/7 8:31,5.5,16,5.6,16,11.9,16
2015/4/7 8:32,5.7,16,5.7,16,12.4,16
2015/4/7 8:33,5.9,16,6,16,13.4,1
2015/4/7 8:34,5.9,16,6,16,10.8,14
2015/4/7 8:35,6.1,16,6.1,16,11.3,15
2015/4/7 8:36,6,16,6.1,16,10.9,15
2015/4/7 8:37,6,16,6.1,16,14.7,16
2015/4/7 8:38,6,16,6,16,12.4,16
2015/4/7 8:39,6.1,16,6.1,16,12.3,1
2015/4/7 8:40,6.2,16,6.3,16,16.1,16
2015/4/7 8:41,5.9,16,6.2,16,6.8,15
2015/4/7 8:42,6.3,16,6.3,16,16.8,16
2015/4/7 8:43,6.1,16,6.2,16,13.3,2
2015/4/7 8:44,6,16,6.1,16,10.1,15
2015/4/7 8:45,5.8,16,6,16,4.8,16
2015/4/7 8:46,5.6,16,5.8,16,6.8,13
2015/4/7 8:47,5.3,16,5.6,16,10.3,13
2015/4/7 8:48,5.3,16,5.3,16,10.2,1
2015/4/7 8:49,5.1,16,5.3,16,9.7,15
2015/4/7 8:50,5,16,5.1,16,10.9,15
2015/4/7 8:51,5,16,5,16,8.9,2
2015/4/7 8:52,4.8,16,5.1,16,13.1,16
2015/4/7 8:53,5,16,5,16,11.5,15
2015/4/7 8:54,5.1,16,5.1,16,10.9,16
2015/4/7 8:55,5.5,16,5.5,16,10.8,15
2015/4/7 8:56,5.7,16,5.7,16,10.9,15
2015/4/7 8:57,6.1,16,6.1,16,14.7,1
2015/4/7 8:58,6.2,16,6.2,16,14.3,15
2015/4/7 8:59,6.4,16,6.4,16,11.7,2
2015/4/7 9:00,6.4,16,6.5,16,10.2,1
2015/4/7 9:01,6.5,16,6.5,16,10,16
2015/4/7 9:02,6.4,16,6.6,16,9.7,15
2015/4/7 9:03,6.3,16,6.5,16,15,1
2015/4/7 9:04,6.1,16,6.3,16,13.2,16
2015/4/7 9:05,5.8,16,6,16,9.9,1
2015/4/7 9:06,5.8,16,5.8,16,11.3,1
2015/4/7 9:07,5.5,16,5.8,16,11.7,1
2015/4/7 9:08,5.3,1,5.5,16,13.6,1
2015/4/7 9:09,5.3,16,5.5,16,10.9,16
2015/4/7 9:10,5.4,16,5.4,16,14.3,1
2015/4/7 9:11,5.7,16,5.7,16,14.9,16
2015/4/7 9:12,5.6,16,5.7,16,9.5,1
2015/4/7 9:13,5.6,16,5.6,16,14.5,16
2015/4/7 9:14,6.4,16,6.4,16,16.6,1
2015/4/7 9:15,6.6,16,6.6,16,16.8,16
2015/4/7 9:16,7,16,7,16,14.8,14
2015/4/7 9:17,7.4,16,7.4,16,13.2,16
2015/4/7 9:18,7.2,16,7.4,16,13,16
2015/4/7 9:19,7.2,16,7.2,16,10.2,1
2015/4/7 9:20,7.1,16,7.3,16,13.6,1
2015/4/7 9:21,6.7,16,7,16,8.6,2
2015/4/7 9:22,6.7,16,6.8,16,8.1,16
2015/4/7 9:23,6.6,16,6.8,16,10.7,2
2015/4/7 9:24,6,16,6.6,16,8.1,1
2015/4/7 9:25,5.9,16,6,16,10.9,1
2015/4/7 9:26,5.6,16,5.9,16,10.3,2
2015/4/7 9:27,5.3,16,5.6,16,7.9,14
2015/4/7 9:28,5.4,16,5.4,16,10.7,15
2015/4/7 9:29,5.4,16,5.5,16,10.9,16
2015/4/7 9:30,5.1,16,5.4,16,9.1,1
2015/4/7 9:31,5.3,16,5.3,16,11.8,1
2015/4/7 9:32,5.5,16,5.5,16,10.9,15
2015/4/7 9:33,5.8,16,5.8,16,14.2,16
2015/4/7 9:34,5.8,16,5.8,16,12.4,16
2015/4/7 9:35,5.7,16,5.9,16,11.3,15
2015/4/7 9:36,5.6,16,5.7,16,9.3,14
2015/4/7 9:37,5.8,16,5.8,16,12.7,16
2015/4/7 9:38,5.7,16,5.8,16,10.1,16
2015/4/7 9:39,5.5,16,5.7,16,10.2,15
2015/4/7 9:40,5.5,16,5.6,16,6.7,16
2015/4/7 9:41,5.4,16,5.6,16,10.2,16
2015/4/7 9:42,5.2,16,5.4,16,9.4,1
2015/4/7 9:43,5,16,5.2,16,11.8,16
2015/4/7 9:44,5.1,16,5.1,16,10.8,1
2015/4/7 9:45,5.2,16,5.2,16,14.8,15
2015/4/7 9:46,5.3,16,5.4,16,13.8,16
2015/4/7 9:47,5.2,16,5.3,16,7.9,16
2015/4/7 9:48,5.2,1,5.3,16,11.3,1
2015/4/7 9:49,5.5,1,5.5,16,9.5,1
2015/4/7 9:50,5.6,1,5.6,16,8.5,2
2015/4/7 9:51,5.4,1,5.5,1,7.6,16
2015/4/7 9:52,5.4,1,5.4,1,9,1
2015/4/7 9:53,5.1,1,5.4,1,7.1,1
2015/4/7 9:54,4.9,1,5.1,1,9.5,2
2015/4/7 9:55,4.6,1,4.9,1,9.8,1
2015/4/7 9:56,4.7,1,4.7,1,11.8,16
2015/4/7 9:57,4.7,1,4.8,1,9.1,15
2015/4/7 9:58,4.5,1,4.7,1,9.1,16
2015/4/7 9:59,4.5,1,4.5,1,9.9,15
2015/4/7 10:00,4.9,1,4.9,1,11.1,16
2015/4/7 10:01,4.9,1,5,1,9.7,16
2015/4/7 10:02,4.8,1,4.8,1,9.2,2
2015/4/7 10:03,4.8,16,4.9,1,8.7,3
2015/4/7 10:04,4.6,16,4.7,1,11,16
2015/4/7 10:05,4.8,16,4.8,1,11.4,1
2015/4/7 10:06,4.7,16,4.8,1,11.5,16
2015/4/7 10:07,5.1,16,5.1,16,12.4,1
2015/4/7 10:08,5.2,16,5.3,16,15.2,1
2015/4/7 10:09,5.1,16,5.3,16,8.1,14
2015/4/7 10:10,5,1,5.1,16,12.8,1
2015/4/7 10:11,5.3,1,5.3,16,16,16
2015/4/7 10:12,5.5,16,5.6,1,10.1,15
2015/4/7 10:13,5.9,16,5.9,16,13.9,1
2015/4/7 10:14,6,1,6.1,1,9.8,16
2015/4/7 10:15,5.9,1,5.9,1,13.2,16
2015/4/7 10:16,6.1,1,6.1,1,13.3,16
2015/4/7 10:17,5.6,16,6,1,9.8,3
2015/4/7 10:18,5.5,1,5.7,1,13,1
2015/4/7 10:19,5.9,1,5.9,1,12.1,16
2015/4/7 10:20,5.5,16,5.9,1,7.4,16
2015/4/7 10:21,5.2,16,5.5,1,8.4,3
2015/4/7 10:22,5.3,1,5.3,1,11.1,2
2015/4/7 10:23,5.3,1,5.3,1,17,16
2015/4/7 10:24,5.6,1,5.6,1,10.9,16
2015/4/7 10:25,5.6,1,5.8,1,9,1
2015/4/7 10:26,5.1,1,5.5,1,4.9,16
2015/4/7 10:27,5.1,16,5.1,1,6.1,1
2015/4/7 10:28,5.1,16,5.1,1,9.9,15
2015/4/7 10:29,4.9,1,5.1,1,7.6,16
2015/4/7 10:30,5,1,5,1,8.9,1
2015/4/7 10:31,5.4,1,5.4,1,13.6,1
2015/4/7 10:32,5.3,1,5.3,1,9.3,2
2015/4/7 10:33,5.3,1,5.4,1,9.5,1
2015/4/7 10:34,5.1,1,5.3,1,12.3,16
2015/4/7 10:35,5.1,1,5.1,1,10.5,1
2015/4/7 10:36,5.3,1,5.3,1,9.4,1
2015/4/7 10:37,5.8,1,5.8,1,14.8,16
2015/4/7 10:38,5.7,1,5.9,1,9.2,16
2015/4/7 10:39,5.7,1,5.7,1,11.6,16
2015/4/7 10:40,5.7,1,5.8,1,10.1,16
2015/4/7 10:41,5.5,16,5.7,1,14.5,16
2015/4/7 10:42,5.4,16,5.7,1,10.8,1
2015/4/7 10:43,5.2,16,5.4,1,5.2,16
2015/4/7 10:44,5,1,5.1,1,8.6,14
2015/4/7 10:45,5.1,1,5.1,1,9.8,1
2015/4/7 10:46,5,1,5.2,1,9,15
2015/4/7 10:47,4.4,1,5,1,4.4,5
2015/4/7 10:48,4.3,1,4.4,1,7.6,1
2015/4/7 10:49,4.1,1,4.3,1,4.4,2
2015/4/7 10:50,4,1,4.1,1,8.6,1
2015/4/7 10:51,3.8,1,4.1,16,7.9,1
2015/4/7 10:52,3.6,1,3.7,16,4.7,3
2015/4/7 10:53,3.6,1,3.6,1,5.1,16
2015/4/7 10:54,3.4,1,3.6,1,7.7,16
2015/4/7 10:55,3.3,1,3.4,1,8.6,2
2015/4/7 10:56,3.3,1,3.3,1,7.2,16
2015/4/7 10:57,3.7,1,3.7,1,10.7,3
2015/4/7 10:58,3.9,1,3.9,1,8.1,2
2015/4/7 10:59,4.2,1,4.2,1,11.7,1
2015/4/7 11:00,4.4,1,4.4,1,8.7,2
2015/4/7 11:01,4.6,1,4.6,1,10.7,16
2015/4/7 11:02,4.8,1,4.8,1,11.8,2
2015/4/7 11:03,4.8,1,4.8,1,5.2,2
2015/4/7 11:04,5,2,5,2,9.7,1
2015/4/7 11:05,5.2,1,5.2,2,9.8,1
2015/4/7 11:06,5.2,1,5.2,2,9.1,1
2015/4/7 11:07,5.1,1,5.2,2,8.7,16
2015/4/7 11:08,4.9,1,5,2,11,16
2015/4/7 11:09,4.9,1,5.1,2,12.2,16
2015/4/7 11:10,4.7,1,4.9,2,6.5,1
2015/4/7 11:11,4.5,1,4.7,2,6.9,2
2015/4/7 11:12,4.2,1,4.5,2,7.8,16
2015/4/7 11:13,4.2,1,4.2,2,7.1,15
2015/4/7 11:14,4.1,16,4.3,2,9.1,3
2015/4/7 11:15,4,1,4.3,1,10.2,2
2015/4/7 11:16,3.9,1,4,1,7.9,2
2015/4/7 11:17,4,1,4,1,7.7,2
2015/4/7 11:18,3.8,1,4,1,7.7,16
2015/4/7 11:19,3.8,1,3.8,1,8.1,1
2015/4/7 11:20,3.9,1,3.9,1,6.8,16
2015/4/7 11:21,3.9,1,3.9,1,6.8,1
2015/4/7 11:22,4.1,1,4.1,1,8.7,15
2015/4/7 11:23,4.4,1,4.4,1,18.7,16
2015/4/7 11:24,4.6,1,4.6,1,12.8,16
2015/4/7 11:25,4.6,1,4.6,1,10,16
2015/4/7 11:26,4.9,1,4.9,1,11.6,16
2015/4/7 11:27,4.8,1,4.9,1,10.1,14
2015/4/7 11:28,4.8,1,4.8,1,9.3,16
2015/4/7 11:29,5,1,5,1,10.5,1
2015/4/7 11:30,5,16,5.1,1,10.2,16
2015/4/7 11:31,5.3,16,5.3,16,13.1,16
2015/4/7 11:32,5.5,1,5.6,16,9.8,16
2015/4/7 11:33,5.6,1,5.7,1,10,16
2015/4/7 11:34,5.5,1,5.6,1,11.3,15
2015/4/7 11:35,6.1,1,6.1,1,19.3,15
2015/4/7 11:36,6.3,1,6.3,1,13.4,16
2015/4/7 11:37,6.6,1,6.6,16,10.8,2
2015/4/7 11:38,6.7,1,6.8,1,9.8,1
2015/4/7 11:39,6.6,1,6.8,1,12.2,15
2015/4/7 11:40,6.7,1,6.7,1,9.8,2
2015/4/7 11:41,6.6,1,6.6,1,10.6,1
2015/4/7 11:42,6.4,1,6.6,1,7.4,15
2015/4/7 11:43,6.1,1,6.3,1,8.4,2
2015/4/7 11:44,6,1,6.1,1,6.4,3